カタログに戻る

STARLINK-30959

運用中通信VLEO
NORAD 58442·PAYLOAD·🇺🇸 United States

打ち上げ Nov 28, 2023 から Cape Canaveral Space Force Station

Loading…

次のパス (今後24時間)

TLE

最新Source: CelesTrak SupGP

元期: Sep 15, 2026, 02:37 UTC

1 58442C 23183F   26258.10951389 -.00021180  00000+0 -76687-3 0  2587
2 58442  43.0043  51.5953 0001790 274.0240 205.3012 15.27600654    13

AllMySatでSTARLINK-30959をリアルタイム追跡

Download on the App Store